Time,TemperatureF,DewpointF,PressureIn,WindDirection,WindDirectionDegrees,WindSpeedMPH,WindSpeedGustMPH,Humidity,HourlyPrecipIn,Conditions,Clouds,dailyrainin,SolarRadiationWatts/m^2,SoftwareType,DateUTC
2013-07-21 01:24:00,67.0,63.3,29.75,South,185,0.0,0.0,88,0.00,,,0.00,0,Wunderground v.1.15,2013-07-21 08:24:00,
2013-07-21 18:09:00,80.5,60.7,29.73,SSW,211,0.0,2.0,51,0.00,,,0.00,30,Wunderground v.1.15,2013-07-22 01:09:00,
2013-07-21 18:15:00,80.5,60.7,29.74,SSW,211,0.0,3.0,51,0.00,,,0.00,30,Wunderground v.1.15,2013-07-22 01:15:00,
2013-07-21 18:20:00,80.5,60.7,29.74,SSW,211,0.0,1.0,51,0.00,,,0.00,49,Wunderground v.1.15,2013-07-22 01:20:00,
2013-07-21 18:26:00,80.6,60.8,29.74,SSW,211,0.0,1.0,51,0.00,,,0.00,88,Wunderground v.1.15,2013-07-22 01:26:00,
2013-07-21 18:31:00,80.7,60.9,29.74,SSW,211,0.0,0.0,51,0.00,,,0.00,69,Wunderground v.1.15,2013-07-22 01:31:00,
2013-07-21 18:37:00,80.9,61.1,29.74,SSW,211,0.0,0.0,51,0.00,,,0.00,28,Wunderground v.1.15,2013-07-22 01:37:00,
2013-07-21 18:42:00,81.0,61.7,29.75,SSW,211,0.0,0.0,52,0.00,,,0.00,42,Wunderground v.1.15,2013-07-22 01:42:00,
2013-07-21 18:47:00,81.0,61.2,29.74,SSW,211,0.0,0.0,51,0.00,,,0.00,32,Wunderground v.1.15,2013-07-22 01:47:00,
2013-07-21 18:52:00,80.9,61.6,29.75,SSW,211,0.0,7.0,52,0.00,,,0.00,25,Wunderground v.1.15,2013-07-22 01:52:00,
2013-07-21 18:57:00,80.7,62.0,29.75,SSW,211,0.0,7.0,53,0.00,,,0.00,21,Wunderground v.1.15,2013-07-22 01:57:00,
2013-07-21 19:02:00,80.4,62.2,29.75,SSW,211,0.0,1.0,54,0.00,,,0.00,16,Wunderground v.1.15,2013-07-22 02:02:00,
2013-07-21 19:20:00,79.6,62.0,29.76,SSW,211,0.0,0.0,55,0.00,,,0.00,0,Wunderground v.1.15,2013-07-22 02:20:00,
2013-07-21 19:25:00,79.2,62.1,29.76,SSW,211,0.0,0.0,56,0.00,,,0.00,0,Wunderground v.1.15,2013-07-22 02:25:00,
2013-07-21 19:30:00,78.9,61.9,29.76,SSW,211,0.0,0.0,56,0.00,,,0.00,0,Wunderground v.1.15,2013-07-22 02:30:00,
2013-07-21 19:51:00,78.0,62.5,29.76,SSW,211,0.0,0.0,59,0.00,,,0.00,0,Wunderground v.1.15,2013-07-22 02:51:00,
2013-07-21 19:56:00,77.8,61.8,29.76,SSW,211,0.0,1.0,58,0.00,,,0.00,0,Wunderground v.1.15,2013-07-22 02:56:00,
2013-07-21 20:01:00,77.6,61.7,29.76,SSW,211,0.0,5.0,58,0.00,,,0.00,0,Wunderground v.1.15,2013-07-22 03:01:00,
2013-07-21 20:06:00,77.5,61.6,29.76,SSW,212,1.0,5.0,58,0.00,,,0.00,0,Wunderground v.1.15,2013-07-22 03:06:00,
2013-07-21 20:12:00,77.4,61.9,29.77,SW,214,2.0,6.0,59,0.00,,,0.00,0,Wunderground v.1.15,2013-07-22 03:12:00,
2013-07-21 20:17:00,77.3,61.9,29.77,SW,214,0.0,2.0,59,0.00,,,0.00,0,Wunderground v.1.15,2013-07-22 03:17:00,
2013-07-21 20:22:00,77.1,62.1,29.77,SW,217,0.0,8.0,60,0.00,,,0.00,0,Wunderground v.1.15,2013-07-22 03:22:00,
2013-07-21 20:29:00,76.9,62.4,29.77,SW,217,3.0,3.0,61,0.00,,,0.00,0,Wunderground v.1.15,2013-07-22 03:29:00,
2013-07-21 20:35:00,76.7,62.7,29.78,SW,217,1.0,2.0,62,0.00,,,0.00,0,Wunderground v.1.15,2013-07-22 03:35:00,
2013-07-21 20:41:00,76.5,62.5,29.78,SW,216,0.0,6.0,62,0.00,,,0.00,0,Wunderground v.1.15,2013-07-22 03:41:00,
2013-07-21 20:46:00,76.4,62.4,29.78,SW,218,0.0,5.0,62,0.00,,,0.00,0,Wunderground v.1.15,2013-07-22 03:46:00,
2013-07-21 20:51:00,76.3,62.3,29.78,SW,219,4.0,5.0,62,0.00,,,0.00,0,Wunderground v.1.15,2013-07-22 03:51:00,
2013-07-21 20:57:00,76.1,62.1,29.79,SW,230,2.0,7.0,62,0.00,,,0.00,0,Wunderground v.1.15,2013-07-22 03:57:00,
2013-07-21 21:01:00,76.0,62.0,29.79,SW,235,4.0,5.0,62,0.00,,,0.00,0,Wunderground v.1.15,2013-07-22 04:01:00,
2013-07-21 21:02:00,76.0,62.0,29.79,SW,236,3.0,5.0,62,0.00,,,0.00,0,Wunderground v.1.15,2013-07-22 04:02:00,
2013-07-21 21:04:00,76.0,62.0,29.79,SW,236,0.0,5.0,62,0.00,,,0.00,0,Wunderground v.1.15,2013-07-22 04:04:00,
2013-07-21 21:09:00,75.9,62.4,29.79,SW,236,0.0,5.0,63,0.00,,,0.00,0,Wunderground v.1.15,2013-07-22 04:09:00,
2013-07-21 21:14:00,75.8,62.8,29.80,SW,235,0.0,2.0,64,0.00,,,0.00,0,Wunderground v.1.15,2013-07-22 04:14:00,
2013-07-21 21:20:00,75.7,62.7,29.79,SW,235,1.0,1.0,64,0.00,,,0.00,0,Wunderground v.1.15,2013-07-22 04:20:00,
2013-07-21 21:25:00,75.5,62.5,29.79,SW,236,0.0,5.0,64,0.00,,,0.00,0,Wunderground v.1.15,2013-07-22 04:25:00,
2013-07-21 21:30:00,75.3,62.3,29.80,SW,236,3.0,3.0,64,0.00,,,0.00,0,Wunderground v.1.15,2013-07-22 04:30:00,
2013-07-21 21:35:00,75.1,62.1,29.80,SW,236,0.0,4.0,64,0.00,,,0.00,0,Wunderground v.1.15,2013-07-22 04:35:00,
2013-07-21 21:40:00,75.0,62.4,29.80,SW,236,0.0,0.0,65,0.00,,,0.00,0,Wunderground v.1.15,2013-07-22 04:40:00,
2013-07-21 21:45:00,74.8,62.2,29.81,SW,236,0.0,1.0,65,0.00,,,0.00,0,Wunderground v.1.15,2013-07-22 04:45:00,
2013-07-21 21:50:00,74.6,62.5,29.81,SW,235,0.0,0.0,66,0.00,,,0.00,0,Wunderground v.1.15,2013-07-22 04:50:00,
2013-07-21 21:55:00,74.4,62.3,29.81,SW,236,0.0,2.0,66,0.00,,,0.00,0,Wunderground v.1.15,2013-07-22 04:55:00,
2013-07-21 22:00:00,74.3,62.6,29.81,SW,235,0.0,0.0,67,0.00,,,0.00,0,Wunderground v.1.15,2013-07-22 05:00:00,
2013-07-21 22:05:00,74.1,62.4,29.81,SW,236,0.0,0.0,67,0.00,,,0.00,0,Wunderground v.1.15,2013-07-22 05:05:00,
2013-07-21 22:10:00,73.9,62.2,29.81,SW,236,0.0,0.0,67,0.00,,,0.00,0,Wunderground v.1.15,2013-07-22 05:10:00,
2013-07-21 22:15:00,73.7,62.1,29.81,SW,236,0.0,4.0,67,0.00,,,0.00,0,Wunderground v.1.15,2013-07-22 05:15:00,
2013-07-21 22:20:00,73.5,61.9,29.81,SW,236,0.0,0.0,67,0.00,,,0.00,0,Wunderground v.1.15,2013-07-22 05:20:00,
2013-07-21 22:25:00,73.4,62.2,29.81,SW,235,0.0,0.0,68,0.00,,,0.00,0,Wunderground v.1.15,2013-07-22 05:25:00,
2013-07-21 22:30:00,73.3,62.5,29.81,SW,235,0.0,0.0,69,0.00,,,0.00,0,Wunderground v.1.15,2013-07-22 05:30:00,
2013-07-21 22:35:00,73.1,62.3,29.81,SW,236,0.0,0.0,69,0.00,,,0.00,0,Wunderground v.1.15,2013-07-22 05:35:00,
2013-07-21 22:40:00,73.0,62.2,29.81,SW,236,0.0,0.0,69,0.00,,,0.00,0,Wunderground v.1.15,2013-07-22 05:40:00,
2013-07-21 22:45:00,72.8,62.4,29.81,SW,235,0.0,0.0,70,0.00,,,0.00,0,Wunderground v.1.15,2013-07-22 05:45:00,
2013-07-21 22:50:00,72.7,62.8,29.81,SW,235,0.0,0.0,71,0.00,,,0.00,0,Wunderground v.1.15,2013-07-22 05:50:00,
2013-07-21 22:55:00,72.5,63.0,29.82,SW,236,4.0,4.0,72,0.00,,,0.00,0,Wunderground v.1.15,2013-07-22 05:55:00,
2013-07-21 23:00:00,72.4,63.3,29.82,SW,235,0.0,1.0,73,0.00,,,0.00,0,Wunderground v.1.15,2013-07-22 06:00:00,
2013-07-21 23:06:00,72.2,63.1,29.82,SW,236,0.0,3.0,73,0.00,,,0.00,0,Wunderground v.1.15,2013-07-22 06:06:00,
2013-07-21 23:11:00,72.1,63.0,29.82,SW,236,0.0,0.0,73,0.00,,,0.00,0,Wunderground v.1.15,2013-07-22 06:11:00,
2013-07-21 23:16:00,72.0,62.9,29.82,SW,235,2.0,4.0,73,0.00,,,0.00,0,Wunderground v.1.15,2013-07-22 06:16:00,
2013-07-21 23:21:00,71.8,63.1,29.82,SW,235,0.0,4.0,74,0.00,,,0.00,0,Wunderground v.1.15,2013-07-22 06:21:00,
2013-07-21 23:26:00,71.7,63.0,29.83,SW,236,0.0,4.0,74,0.00,,,0.00,0,Wunderground v.1.15,2013-07-22 06:26:00,
2013-07-21 23:31:00,71.6,62.9,29.83,SW,236,0.0,0.0,74,0.00,,,0.00,0,Wunderground v.1.15,2013-07-22 06:31:00,
2013-07-21 23:36:00,71.5,62.8,29.83,SW,235,0.0,0.0,74,0.00,,,0.00,0,Wunderground v.1.15,2013-07-22 06:36:00,
2013-07-21 23:41:00,71.3,62.6,29.83,SW,235,0.0,0.0,74,0.00,,,0.00,0,Wunderground v.1.15,2013-07-22 06:41:00,
2013-07-21 23:46:00,71.3,62.6,29.82,SW,236,0.0,0.0,74,0.00,,,0.00,0,Wunderground v.1.15,2013-07-22 06:46:00,
2013-07-21 23:51:00,71.1,62.4,29.83,SW,236,0.0,0.0,74,0.00,,,0.00,0,Wunderground v.1.15,2013-07-22 06:51:00,
2013-07-21 23:56:00,71.0,62.7,29.83,SW,236,0.0,0.0,75,0.00,,,0.00,0,Wunderground v.1.15,2013-07-22 06:56:00,